ATLAS D DEB, 2329

Orbit data source: Space-Track

ATLAS D DEB, 2329 is space debris in LEO originally from a launch on Thu, 14 Jul 1966 UTC launched from the Air Force Western Test Range (AFWTR). Debris objects in space refer to the collection of defunct objects orbiting the Earth. Examples of debris include non-operational satellites, rocket bodies, and fragments generated from explosions, collisions, or faulty payload assembly.

Loading next visibility...
Identifier
2329, 1966-063D
Orbit
LEO
Country
Flag of USUS
Related business
Manufacturer
Goodyear
Mission
Spacecraft
Bus & Motor
CONTAINER, Unknown motor
Mass
2 kg wet, 2 kg dry
Launch date (UTC)
1966-07-14 (59 years ago)
Launch vehicle
Unknown
Launch site
Air Force Western Test Range (AFWTR)
Object type
Payload
Rocket body
Debris
Shape & HBR
Unknown
Radar Cross Section
Medium (>0.1 m² and <1 m²)

Expand to show TLE details & history
Last TLE update: 18 hours ago

TLE from 18 hours ago
0 ATLAS D DEB
1  2329U 66063D   25353.99224909  .00000964  00000-0  53593-3 0  9996
2  2329 144.2873 270.4836 0021220  24.7211   2.7298 13.92355364997274
Epoch: 2025-12-19T23:48Z
TLE epoch observation values (Epoch: 2025-12-19T23:48:50.321Z)
Latitude
15.66512°
Longitude
161.61644°
Altitude
903.286 km
Speed
7.411 km/s
True Right ascension
16h 30m 36s
True Declination
15° 34' 40"
Sunlit
Object was in daylight at epoch
Visualization orbit readout
Latitude
Unknown
Longitude
Unknown
Altitude
Unknown
Speed
Unknown
Apparent Right ascension
Unknown
Apparent Declination
Unknown
Sunlit
N/A
Visualization observer readout
Local Sidereal Time
17:00:04
Azimuth
Unknown
Elevation
Unknown
Doppler factor
Unknown
Orbital elements
Apogee altitude
938.838 km
Perigee altitude
907.85 km
Semi-major axis
7,301.481 km
Eccentricity
0.00212
Inclination
144.2873°
RAAN
270.4836°
Arg. of periapsis
24.7211°
True anomaly
2.74141°
Mean anomaly
2.7298°
Eccentric anomaly
2.7356°
Mean motion
3.47878 °/min
Orbital period
103.48 mins
BSTAR
0.00053593
Loading maneuver chart data...
Computing Atmospheric mass density...
Loading historical data...
Loading historical data...
Loading historical data...
Loading historical data...
Loading historical data...
Loading historical data...
Loading historical data...

Documentation

Showing up to 5 results
|